STARLINK-5502 (55644 NORAD) Tracking and Keplerian Element Data

This shows tracking and keplerian element data for the satellite.

Feedback or suggestion? Click here.




ElementValue
Catalog55644
NameSTARLINK-5502
Epoch Orbit130
Epoch Day62.91667824
Epoch Year2023
RAAN110.1982
Inclination69.9997
Eccentricity0.0003571
Argument of Perigee280.2794
Mean Anonmoly316.1344
Mean Motion15.7500094
Decay Rate-0.01030313
L11 55644U 23021S 23062.91667824 -.01030313 00000+0 -76490-2 0 9998
L22 55644 69.9997 110.1982 0003571 280.2794 316.1344 15.75000940 1302



Live tracking and technical data element details for STARLINK-5502 (NORAD 55644). STARLINK-5502 can be tracked NOW for your location showing map with azimuth and elevation plus other details from your city location.







IsCatalogInMostPopularTable: catalog: 55644, numindb: 2
Update: records affected: 1



GetName: 55644 STARLINK-5502

Hit Count: updated at: Wed, 22 Mar 2023 17:15:45 GMT